This is the latest recevied weather packets stored in our database for station/object N6GPM. If no packets are shown the sender has not sent any weather packets the latest 10 day(s).
| Time | Temp. | Humidity | Pressure | Rain* | Wind** | Luminosity | Snow |
|---|---|---|---|---|---|---|---|
| 1777744603 | 20.56° C | 69% | 1017.8 hPa | 0 mm | - | 911 W/m² | - |
| 1777744299 | 20° C | 71% | 1017.9 hPa | 0 mm | - | 903 W/m² | - |
| 1777743996 | 20° C | 71% | 1017.8 hPa | 0 mm | - | 893 W/m² | - |
| 1777743692 | 20° C | 73% | 1017.8 hPa | 0 mm | - | 851 W/m² | - |
| 1777743390 | 20° C | 72% | 1018 hPa | 0 mm | - | 838 W/m² | - |
| 1777743088 | 20° C | 73% | 1017.8 hPa | 0 mm | - | 820 W/m² | - |
| 1777742785 | 19.44° C | 75% | 1017.9 hPa | 0 mm | - | 839 W/m² | - |
| 1777742482 | 18.89° C | 76% | 1017.8 hPa | 0 mm | - | 828 W/m² | - |
| 1777742177 | 18.33° C | 78% | 1017.9 hPa | 0 mm | - | 798 W/m² | - |
| 1777741874 | 17.78° C | 79% | 1017.9 hPa | 0 mm | - | 768 W/m² | - |
| 1777741571 | 17.22° C | 82% | 1017.8 hPa | 0 mm | - | 732 W/m² | - |
| 1777741268 | 16.11° C | 87% | 1017.7 hPa | 0 mm | - | 722 W/m² | - |
| 1777740965 | 15.56° C | 92% | 1017.8 hPa | 0 mm | - | 689 W/m² | - |
| 1777740662 | 15.56° C | 94% | 1018 hPa | 0 mm | - | 694 W/m² | - |
| 1777740358 | 15° C | 94% | 1018.2 hPa | 0 mm | - | 698 W/m² | - |
| 1777740055 | 14.44° C | 95% | 1018.1 hPa | 0 mm | - | 665 W/m² | - |
| 1777739751 | 14.44° C | 95% | 1018 hPa | 0 mm | - | 582 W/m² | - |
| 1777739448 | 13.89° C | 95% | 1018.1 hPa | 0 mm | - | 468 W/m² | - |
| 1777739145 | 13.89° C | 95% | 1018.3 hPa | 0 mm | - | 523 W/m² | - |
| 1777738842 | 13.33° C | 95% | 1018.2 hPa | 0 mm | - | 377 W/m² | - |
| 1777738538 | 13.89° C | 95% | 1018.4 hPa | 0 mm | - | 265 W/m² | - |
| 1777738236 | 13.33° C | 95% | 1018.3 hPa | 0 mm | - | 213 W/m² | - |
| 1777737934 | 13.89° C | 95% | 1018.3 hPa | 0 mm | - | 205 W/m² | - |
| 1777737632 | 13.33° C | 95% | 1018.3 hPa | 0 mm | - | 203 W/m² | - |
| 1777737331 | 13.33° C | 95% | 1018.6 hPa | 0 mm | - | 205 W/m² | - |
* Rain latest hour (hover to see other rain measurements)
** Current wind speed in m/s (hover to see current wind gust speed)